owner,sensor,date,latitude,longitude,vertical_datum,direction_of_sea_water_velocity,sea_water_speed,upward_sea_water_velocity,qcFlag 
TABS,ioos:station:wmo:42049:1,2009-10-01T00:00:00Z,28.3507,-96.0058,2.0,276.4584526,13.95857443,-99999.0,'11111222,11111222,99999999' 
TABS,ioos:station:wmo:42049:1,2009-10-01T00:30:00Z,28.3507,-96.0058,2.0,273.2549949,12.32988646,-99999.0,'11111222,11111222,99999999' 
TABS,ioos:station:wmo:42049:1,2009-10-01T01:00:00Z,28.3507,-96.0058,2.0,276.529657,12.04814509,-99999.0,'11111222,11111222,99999999' 
TABS,ioos:station:wmo:42049:1,2009-10-01T01:30:00Z,28.3507,-96.0058,2.0,269.9548518,12.8100039,-99999.0,'11111222,11111222,99999999' 
TABS,ioos:station:wmo:42049:1,2009-10-01T02:00:00Z,28.3507,-96.0058,2.0,265.5915021,14.05156575,-99999.0,'11111222,11111222,99999999' 
TABS,ioos:station:wmo:42049:1,2009-10-01T02:30:00Z,28.3507,-96.0058,2.0,268.4446501,11.42420676,-99999.0,'11111222,11111222,99999999' 
TABS,ioos:station:wmo:42049:1,2009-10-01T03:00:00Z,28.3507,-96.0058,2.0,268.4989137,13.36458379,-99999.0,'11111222,11111222,99999999' 
TABS,ioos:station:wmo:42049:1,2009-10-01T03:30:00Z,28.3507,-96.0058,2.0,265.3237691,13.00327651,-99999.0,'11111222,11111222,99999999' 
TABS,ioos:station:wmo:42049:1,2009-10-01T04:00:00Z,28.3507,-96.0058,2.0,275.1729841,11.86833181,-99999.0,'11111222,11111222,99999999' 
TABS,ioos:station:wmo:42049:1,2009-10-01T04:30:00Z,28.3507,-96.0058,2.0,264.5887247,11.98339685,-99999.0,'11111222,11111222,99999999' 
TABS,ioos:station:wmo:42049:1,2009-10-01T05:00:00Z,28.3507,-96.0058,2.0,259.7131325,13.94412062,-99999.0,'11111222,11111222,99999999' 
TABS,ioos:station:wmo:42049:1,2009-10-01T05:30:00Z,28.3507,-96.0058,2.0,252.4254294,12.41966586,-99999.0,'11111222,11111222,99999999' 
TABS,ioos:station:wmo:42049:1,2009-10-01T06:00:00Z,28.3507,-96.0058,2.0,260.5753618,9.893533241,-99999.0,'11133222,11111222,99999999' 
TABS,ioos:station:wmo:42049:1,2009-10-01T06:30:00Z,28.3507,-96.0058,2.0,241.0951218,9.641016544,-99999.0,'11133222,11111222,99999999' 
TABS,ioos:station:wmo:42049:1,2009-10-01T07:00:00Z,28.3507,-96.0058,2.0,254.2814096,9.006802984,-99999.0,'11133222,11111222,99999999' 
TABS,ioos:station:wmo:42049:1,2009-10-01T07:30:00Z,28.3507,-96.0058,2.0,243.5332479,10.38878722,-99999.0,'11111222,11111222,99999999' 
TABS,ioos:station:wmo:42049:1,2009-10-01T08:00:00Z,28.3507,-96.0058,2.0,258.7982102,9.317494298,-99999.0,'11133222,11111222,99999999' 
TABS,ioos:station:wmo:42049:1,2009-10-01T08:30:00Z,28.3507,-96.0058,2.0,243.9289793,9.329222904,-99999.0,'11133222,11111222,99999999' 
TABS,ioos:station:wmo:42049:1,2009-10-01T09:00:00Z,28.3507,-96.0058,2.0,242.9780607,10.10287583,-99999.0,'11111222,11111222,99999999' 
TABS,ioos:station:wmo:42049:1,2009-10-01T09:30:00Z,28.3507,-96.0058,2.0,256.5643985,9.942082277,-99999.0,'11133222,11111222,99999999' 
TABS,ioos:station:wmo:42049:1,2009-10-01T10:00:00Z,28.3507,-96.0058,2.0,271.948011,7.944589354,-99999.0,'11133222,11111222,99999999' 
TABS,ioos:station:wmo:42049:1,2009-10-01T10:30:00Z,28.3507,-96.0058,2.0,263.2469777,7.824276324,-99999.0,'11133222,11111222,99999999' 
TABS,ioos:station:wmo:42049:1,2009-10-01T11:00:00Z,28.3507,-96.0058,2.0,233.3128202,9.390047923,-99999.0,'11133222,11111222,99999999' 
TABS,ioos:station:wmo:42049:1,2009-10-01T11:30:00Z,28.3507,-96.0058,2.0,233.5552225,8.888245046,-99999.0,'11133222,11111222,99999999' 
TABS,ioos:station:wmo:42049:1,2009-10-01T12:00:00Z,28.3507,-96.0058,2.0,256.2469377,9.800984644,-99999.0,'11133222,11111222,99999999' 
TABS,ioos:station:wmo:42049:1,2009-10-01T12:30:00Z,28.3507,-96.0058,2.0,248.7634508,8.282415107,-99999.0,'11133222,11111222,99999999' 
TABS,ioos:station:wmo:42049:1,2009-10-01T13:00:00Z,28.3507,-96.0058,2.0,258.9922397,8.170312112,-99999.0,'11133222,11111222,99999999' 
TABS,ioos:station:wmo:42049:1,2009-10-01T13:30:00Z,28.3507,-96.0058,2.0,276.1930241,6.860029154,-99999.0,'11133222,11111222,99999999' 
TABS,ioos:station:wmo:42049:1,2009-10-01T14:00:00Z,28.3507,-96.0058,2.0,281.8340386,8.582400597,-99999.0,'11133222,11111222,99999999' 
TABS,ioos:station:wmo:42049:1,2009-10-01T14:30:00Z,28.3507,-96.0058,2.0,277.8396659,8.358109834,-99999.0,'11133222,11111222,99999999' 
TABS,ioos:station:wmo:42049:1,2009-10-01T15:00:00Z,28.3507,-96.0058,2.0,285.6474118,9.232128682,-99999.0,'11133222,11111222,99999999' 
TABS,ioos:station:wmo:42049:1,2009-10-01T15:30:00Z,28.3507,-96.0058,2.0,293.3316094,7.372875965,-99999.0,'11133222,11111222,99999999' 
TABS,ioos:station:wmo:42049:1,2009-10-01T16:00:00Z,28.3507,-96.0058,2.0,297.6224053,6.060775528,-99999.0,'11133222,11111222,99999999' 
TABS,ioos:station:wmo:42049:1,2009-10-01T16:30:00Z,28.3507,-96.0058,2.0,315.9743364,4.575642031,-99999.0,'11133222,11111222,99999999' 
TABS,ioos:station:wmo:42049:1,2009-10-01T17:00:00Z,28.3507,-96.0058,2.0,324.2532838,5.409038732,-99999.0,'11133222,11111222,99999999' 
TABS,ioos:station:wmo:42049:1,2009-10-01T17:30:00Z,28.3507,-96.0058,2.0,327.9149175,6.833812991,-99999.0,'11133222,11111222,99999999' 
TABS,ioos:station:wmo:42049:1,2009-10-01T18:00:00Z,28.3507,-96.0058,2.0,345.7855788,6.230770418,-99999.0,'11133222,11111222,99999999' 
TABS,ioos:station:wmo:42049:1,2009-10-01T18:30:00Z,28.3507,-96.0058,2.0,345.6707255,5.212158862,-99999.0,'11133222,11111222,99999999' 
TABS,ioos:station:wmo:42049:1,2009-10-01T19:00:00Z,28.3507,-96.0058,2.0,332.7561022,4.150433712,-99999.0,'11133222,11111222,99999999' 
TABS,ioos:station:wmo:42049:1,2009-10-01T19:30:00Z,28.3507,-96.0058,2.0,42.11611286,5.62154783,-99999.0,'11133222,11111222,99999999' 
TABS,ioos:station:wmo:42049:1,2009-10-01T20:00:00Z,28.3507,-96.0058,2.0,37.79762669,5.188679986,-99999.0,'11133222,11111222,99999999' 
TABS,ioos:station:wmo:42049:1,2009-10-01T20:30:00Z,28.3507,-96.0058,2.0,31.335834,6.076322901,-99999.0,'11133222,11111222,99999999' 
TABS,ioos:station:wmo:42049:1,2009-10-01T21:00:00Z,28.3507,-96.0058,2.0,55.0607715,6.233538321,-99999.0,'11133222,11111222,99999999' 
TABS,ioos:station:wmo:42049:1,2009-10-01T21:30:00Z,28.3507,-96.0058,2.0,76.68394809,5.210076775,-99999.0,'11133222,11111222,99999999' 
TABS,ioos:station:wmo:42049:1,2009-10-01T22:00:00Z,28.3507,-96.0058,2.0,88.25296203,4.59213458,-99999.0,'11133222,11111222,99999999' 
TABS,ioos:station:wmo:42049:1,2009-10-01T22:30:00Z,28.3507,-96.0058,2.0,121.4519875,3.622181663,-99999.0,'11133222,11111222,99999999' 
TABS,ioos:station:wmo:42049:1,2009-10-01T23:00:00Z,28.3507,-96.0058,2.0,146.4753947,2.878906042,-99999.0,'11133222,11111222,99999999' 
TABS,ioos:station:wmo:42049:1,2009-10-01T23:30:00Z,28.3507,-96.0058,2.0,112.6198121,4.16,-99999.0,'11133222,11111222,99999999' 
TABS,ioos:station:wmo:42049:1,2009-10-02T00:00:00Z,28.3507,-96.0058,2.0,176.6124107,6.431236273,-99999.0,'11133222,11111222,99999999' 
TABS,ioos:station:wmo:42049:1,2009-10-02T00:30:00Z,28.3507,-96.0058,2.0,194.8419819,4.138067182,-99999.0,'11133222,11111222,99999999' 
TABS,ioos:station:wmo:42049:1,2009-10-02T01:00:00Z,28.3507,-96.0058,2.0,189.5854575,5.344623467,-99999.0,'11133222,11111222,99999999' 
TABS,ioos:station:wmo:42049:1,2009-10-02T01:30:00Z,28.3507,-96.0058,2.0,193.5614474,4.392470831,-99999.0,'11133222,11111222,99999999' 
TABS,ioos:station:wmo:42049:1,2009-10-02T02:00:00Z,28.3507,-96.0058,2.0,245.955412,2.847033544,-99999.0,'11133222,11111222,99999999' 
TABS,ioos:station:wmo:42049:1,2009-10-02T02:30:00Z,28.3507,-96.0058,2.0,226.7858719,3.402837052,-99999.0,'11133222,11111222,99999999' 
TABS,ioos:station:wmo:42049:1,2009-10-02T03:00:00Z,28.3507,-96.0058,2.0,266.0920117,3.668528315,-99999.0,'11133222,11111222,99999999' 
TABS,ioos:station:wmo:42049:1,2009-10-02T03:30:00Z,28.3507,-96.0058,2.0,286.6806477,2.891677714,-99999.0,'11133222,11111222,99999999' 
TABS,ioos:station:wmo:42049:1,2009-10-02T04:00:00Z,28.3507,-96.0058,2.0,344.9317575,3.231098884,-99999.0,'11133222,11111222,99999999' 
TABS,ioos:station:wmo:42049:1,2009-10-02T04:30:00Z,28.3507,-96.0058,2.0,346.3454565,3.642965825,-99999.0,'11133222,11111222,99999999' 
TABS,ioos:station:wmo:42049:1,2009-10-02T05:00:00Z,28.3507,-96.0058,2.0,352.8159599,1.199416525,-99999.0,'11133222,11111222,99999999' 
TABS,ioos:station:wmo:42049:1,2009-10-02T05:30:00Z,28.3507,-96.0058,2.0,79.4722385,2.298695282,-99999.0,'11133222,11111222,99999999' 
TABS,ioos:station:wmo:42049:1,2009-10-02T06:00:00Z,28.3507,-96.0058,2.0,9.077243034,1.711432149,-99999.0,'11133222,11111222,99999999' 
TABS,ioos:station:wmo:42049:1,2009-10-02T06:30:00Z,28.3507,-96.0058,2.0,5.013312491,2.8609439,-99999.0,'11133222,11111222,99999999' 
TABS,ioos:station:wmo:42049:1,2009-10-02T07:00:00Z,28.3507,-96.0058,2.0,28.43577655,2.877116612,-99999.0,'11133222,11111222,99999999' 
TABS,ioos:station:wmo:42049:1,2009-10-02T07:30:00Z,28.3507,-96.0058,2.0,30.23094124,3.217576728,-99999.0,'11133222,11111222,99999999' 
TABS,ioos:station:wmo:42049:1,2009-10-02T08:00:00Z,28.3507,-96.0058,2.0,34.75604174,5.96405902,-99999.0,'11133222,11111222,99999999' 
TABS,ioos:station:wmo:42049:1,2009-10-02T08:30:00Z,28.3507,-96.0058,2.0,16.33621515,4.230803706,-99999.0,'11133222,11111222,99999999' 
TABS,ioos:station:wmo:42049:1,2009-10-02T09:00:00Z,28.3507,-96.0058,2.0,43.25982178,5.355268434,-99999.0,'11133222,11111222,99999999' 
TABS,ioos:station:wmo:42049:1,2009-10-02T09:30:00Z,28.3507,-96.0058,2.0,56.24524605,7.360876307,-99999.0,'11133222,11111222,99999999' 
TABS,ioos:station:wmo:42049:1,2009-10-02T10:00:00Z,28.3507,-96.0058,2.0,71.76552801,6.327756316,-99999.0,'11133222,11111222,99999999' 
TABS,ioos:station:wmo:42049:1,2009-10-02T10:30:00Z,28.3507,-96.0058,2.0,68.96253817,4.317800366,-99999.0,'11133222,11111222,99999999' 
TABS,ioos:station:wmo:42049:1,2009-10-02T11:00:00Z,28.3507,-96.0058,2.0,88.91452818,4.750852555,-99999.0,'11133222,11111222,99999999' 
TABS,ioos:station:wmo:42049:1,2009-10-02T11:30:00Z,28.3507,-96.0058,2.0,83.75640225,5.241087673,-99999.0,'11133222,11111222,99999999' 
TABS,ioos:station:wmo:42049:1,2009-10-02T12:00:00Z,28.3507,-96.0058,2.0,83.53742045,5.686132253,-99999.0,'11133222,11111222,99999999' 
TABS,ioos:station:wmo:42049:1,2009-10-02T12:30:00Z,28.3507,-96.0058,2.0,157.6274852,8.01315169,-99999.0,'11133222,11111222,99999999' 
TABS,ioos:station:wmo:42049:1,2009-10-02T13:00:00Z,28.3507,-96.0058,2.0,203.3967967,7.202201052,-99999.0,'11133222,11111222,99999999' 
TABS,ioos:station:wmo:42049:1,2009-10-02T13:30:00Z,28.3507,-96.0058,2.0,219.2686257,9.842626682,-99999.0,'11133222,11111222,99999999' 
TABS,ioos:station:wmo:42049:1,2009-10-02T14:00:00Z,28.3507,-96.0058,2.0,224.5555409,13.68292732,-99999.0,'11111222,11111222,99999999' 
TABS,ioos:station:wmo:42049:1,2009-10-02T14:30:00Z,28.3507,-96.0058,2.0,214.0798418,14.25889898,-99999.0,'11111222,11111222,99999999' 
TABS,ioos:station:wmo:42049:1,2009-10-02T15:00:00Z,28.3507,-96.0058,2.0,234.1149526,11.51570232,-99999.0,'11111222,11111222,99999999' 
TABS,ioos:station:wmo:42049:1,2009-10-02T15:30:00Z,28.3507,-96.0058,2.0,240.2742358,10.95102735,-99999.0,'11111222,11111222,99999999' 
TABS,ioos:station:wmo:42049:1,2009-10-02T16:00:00Z,28.3507,-96.0058,2.0,256.1244522,13.80275697,-99999.0,'11111222,11111222,99999999' 
TABS,ioos:station:wmo:42049:1,2009-10-02T16:30:00Z,28.3507,-96.0058,2.0,251.8647562,17.50977156,-99999.0,'11111222,11111222,99999999' 
TABS,ioos:station:wmo:42049:1,2009-10-02T17:00:00Z,28.3507,-96.0058,2.0,248.7647782,20.84532082,-99999.0,'11111222,11111222,99999999' 
TABS,ioos:station:wmo:42049:1,2009-10-02T17:30:00Z,28.3507,-96.0058,2.0,246.486699,22.25808842,-99999.0,'11111222,11111222,99999999' 
TABS,ioos:station:wmo:42049:1,2009-10-02T18:00:00Z,28.3507,-96.0058,2.0,241.0069092,22.48819468,-99999.0,'11111222,11111222,99999999' 
TABS,ioos:station:wmo:42049:1,2009-10-02T18:30:00Z,28.3507,-96.0058,2.0,246.7516021,24.34684785,-99999.0,'11111222,11111222,99999999' 
TABS,ioos:station:wmo:42049:1,2009-10-02T19:00:00Z,28.3507,-96.0058,2.0,247.6336703,26.38487445,-99999.0,'11111222,11111222,99999999' 
TABS,ioos:station:wmo:42049:1,2009-10-02T19:30:00Z,28.3507,-96.0058,2.0,245.7244799,28.65349542,-99999.0,'11111222,11111222,99999999' 
TABS,ioos:station:wmo:42049:1,2009-10-02T20:00:00Z,28.3507,-96.0058,2.0,249.1689045,26.85539983,-99999.0,'11111222,11111222,99999999' 
TABS,ioos:station:wmo:42049:1,2009-10-02T20:30:00Z,28.3507,-96.0058,2.0,248.0447468,25.65018908,-99999.0,'11111222,11111222,99999999' 
TABS,ioos:station:wmo:42049:1,2009-10-02T21:00:00Z,28.3507,-96.0058,2.0,249.1472562,24.44085923,-99999.0,'11111222,11111222,99999999' 
TABS,ioos:station:wmo:42049:1,2009-10-02T21:30:00Z,28.3507,-96.0058,2.0,249.0699678,27.46194822,-99999.0,'11111222,11111222,99999999' 
TABS,ioos:station:wmo:42049:1,2009-10-02T22:00:00Z,28.3507,-96.0058,2.0,240.0315697,26.74581276,-99999.0,'11111222,11111222,99999999' 
TABS,ioos:station:wmo:42049:1,2009-10-02T22:30:00Z,28.3507,-96.0058,2.0,246.3959912,28.04644184,-99999.0,'11111222,11111222,99999999' 
TABS,ioos:station:wmo:42049:1,2009-10-02T23:00:00Z,28.3507,-96.0058,2.0,247.7727312,30.50687136,-99999.0,'11111222,11111222,99999999' 
TABS,ioos:station:wmo:42049:1,2009-10-02T23:30:00Z,28.3507,-96.0058,2.0,249.1686859,29.27349825,-99999.0,'11111222,11111222,99999999' 
TABS,ioos:station:wmo:42049:1,2009-10-03T00:00:00Z,28.3507,-96.0058,2.0,241.1479579,25.78003103,-99999.0,'11111222,11111222,99999999' 
TABS,ioos:station:wmo:42049:1,2009-10-03T00:30:00Z,28.3507,-96.0058,2.0,242.2507349,27.70632419,-99999.0,'11111222,11111222,99999999' 
TABS,ioos:station:wmo:42049:1,2009-10-03T01:00:00Z,28.3507,-96.0058,2.0,241.0212937,28.4635574,-99999.0,'11111222,11111222,99999999' 
TABS,ioos:station:wmo:42049:1,2009-10-03T01:30:00Z,28.3507,-96.0058,2.0,239.5936831,27.30558368,-99999.0,'11111222,11111222,99999999' 
TABS,ioos:station:wmo:42049:1,2009-10-03T02:00:00Z,28.3507,-96.0058,2.0,239.6451841,29.0294919,-99999.0,'11111222,11111222,99999999' 
TABS,ioos:station:wmo:42049:1,2009-10-03T02:30:00Z,28.3507,-96.0058,2.0,239.825195,24.65011562,-99999.0,'11111222,11111222,99999999' 
TABS,ioos:station:wmo:42049:1,2009-10-03T03:00:00Z,28.3507,-96.0058,2.0,233.1102262,23.45600136,-99999.0,'11111222,11111222,99999999' 
TABS,ioos:station:wmo:42049:1,2009-10-03T03:30:00Z,28.3507,-96.0058,2.0,236.8117901,25.63090712,-99999.0,'11111222,11111222,99999999' 
TABS,ioos:station:wmo:42049:1,2009-10-03T04:00:00Z,28.3507,-96.0058,2.0,243.4887447,23.65760977,-99999.0,'11111222,11111222,99999999' 
TABS,ioos:station:wmo:42049:1,2009-10-03T04:30:00Z,28.3507,-96.0058,2.0,251.4158131,23.12581458,-99999.0,'11111222,11111222,99999999' 
TABS,ioos:station:wmo:42049:1,2009-10-03T05:00:00Z,28.3507,-96.0058,2.0,244.8647731,23.47260957,-99999.0,'11111222,11111222,99999999' 
TABS,ioos:station:wmo:42049:1,2009-10-03T05:30:00Z,28.3507,-96.0058,2.0,239.8435708,18.49281482,-99999.0,'11111222,11111222,99999999' 
TABS,ioos:station:wmo:42049:1,2009-10-03T06:00:00Z,28.3507,-96.0058,2.0,240.2360616,18.99592061,-99999.0,'11111222,11111222,99999999' 
TABS,ioos:station:wmo:42049:1,2009-10-03T06:30:00Z,28.3507,-96.0058,2.0,250.2767396,16.74216533,-99999.0,'11111222,11111222,99999999' 
TABS,ioos:station:wmo:42049:1,2009-10-03T07:00:00Z,28.3507,-96.0058,2.0,235.0983382,18.63099568,-99999.0,'11111222,11111222,99999999' 
TABS,ioos:station:wmo:42049:1,2009-10-03T07:30:00Z,28.3507,-96.0058,2.0,237.8412876,18.26170857,-99999.0,'11111222,11111222,99999999' 
TABS,ioos:station:wmo:42049:1,2009-10-03T08:00:00Z,28.3507,-96.0058,2.0,234.9060101,17.55043304,-99999.0,'11111222,11111222,99999999' 
TABS,ioos:station:wmo:42049:1,2009-10-03T08:30:00Z,28.3507,-96.0058,2.0,236.7016844,19.4537914,-99999.0,'11111222,11111222,99999999' 
TABS,ioos:station:wmo:42049:1,2009-10-03T09:00:00Z,28.3507,-96.0058,2.0,239.6306381,16.85235889,-99999.0,'11111222,11111222,99999999' 
TABS,ioos:station:wmo:42049:1,2009-10-03T09:30:00Z,28.3507,-96.0058,2.0,238.4323389,17.7459432,-99999.0,'11111222,11111222,99999999' 
TABS,ioos:station:wmo:42049:1,2009-10-03T10:00:00Z,28.3507,-96.0058,2.0,246.2524577,18.1027346,-99999.0,'11111222,11111222,99999999' 
TABS,ioos:station:wmo:42049:1,2009-10-03T10:30:00Z,28.3507,-96.0058,2.0,257.1542186,29.64183024,-99999.0,'11111222,11111222,99999999' 
TABS,ioos:station:wmo:42049:1,2009-10-03T11:00:00Z,28.3507,-96.0058,2.0,247.7573786,28.47908004,-99999.0,'11111222,11111222,99999999' 
TABS,ioos:station:wmo:42049:1,2009-10-03T11:30:00Z,28.3507,-96.0058,2.0,250.3667271,31.31022996,-99999.0,'11111222,11111222,99999999' 
TABS,ioos:station:wmo:42049:1,2009-10-03T12:00:00Z,28.3507,-96.0058,2.0,248.9789586,31.75313685,-99999.0,'11111222,11111222,99999999' 
TABS,ioos:station:wmo:42049:1,2009-10-03T12:30:00Z,28.3507,-96.0058,2.0,251.6604383,32.16357101,-99999.0,'11111222,11111222,99999999' 
TABS,ioos:station:wmo:42049:1,2009-10-03T13:00:00Z,28.3507,-96.0058,2.0,247.0655683,31.00046613,-99999.0,'11111222,11111222,99999999' 
TABS,ioos:station:wmo:42049:1,2009-10-03T13:30:00Z,28.3507,-96.0058,2.0,249.4032362,28.25608076,-99999.0,'11111222,11111222,99999999' 
TABS,ioos:station:wmo:42049:1,2009-10-03T14:00:00Z,28.3507,-96.0058,2.0,248.9249519,27.67083121,-99999.0,'11111222,11111222,99999999' 
TABS,ioos:station:wmo:42049:1,2009-10-03T14:30:00Z,28.3507,-96.0058,2.0,243.8170129,26.13127245,-99999.0,'11111222,11111222,99999999' 
TABS,ioos:station:wmo:42049:1,2009-10-03T15:00:00Z,28.3507,-96.0058,2.0,245.9310566,24.12771228,-99999.0,'11111222,11111222,99999999' 
TABS,ioos:station:wmo:42049:1,2009-10-03T15:30:00Z,28.3507,-96.0058,2.0,246.2845097,25.63468354,-99999.0,'11111222,11111222,99999999' 
TABS,ioos:station:wmo:42049:1,2009-10-03T16:00:00Z,28.3507,-96.0058,2.0,246.8400779,28.90974403,-99999.0,'11111222,11111222,99999999' 
TABS,ioos:station:wmo:42049:1,2009-10-03T16:30:00Z,28.3507,-96.0058,2.0,252.6337326,28.81336495,-99999.0,'11111222,11111222,99999999' 
TABS,ioos:station:wmo:42049:1,2009-10-03T17:00:00Z,28.3507,-96.0058,2.0,243.2544156,32.7093641,-99999.0,'11111222,11111222,99999999' 
TABS,ioos:station:wmo:42049:1,2009-10-03T17:30:00Z,28.3507,-96.0058,2.0,234.4919212,20.02365851,-99999.0,'11111222,11111222,99999999' 
TABS,ioos:station:wmo:42049:1,2009-10-03T18:00:00Z,28.3507,-96.0058,2.0,252.6248179,26.32098022,-99999.0,'11111222,11111222,99999999' 
TABS,ioos:station:wmo:42049:1,2009-10-03T18:30:00Z,28.3507,-96.0058,2.0,243.062377,29.60169252,-99999.0,'11111222,11111222,99999999' 
TABS,ioos:station:wmo:42049:1,2009-10-03T19:00:00Z,28.3507,-96.0058,2.0,254.3719885,31.70193212,-99999.0,'11111222,11111222,99999999' 
TABS,ioos:station:wmo:42049:1,2009-10-03T19:30:00Z,28.3507,-96.0058,2.0,249.2702084,37.51888191,-99999.0,'11111222,11111222,99999999' 
TABS,ioos:station:wmo:42049:1,2009-10-03T20:00:00Z,28.3507,-96.0058,2.0,262.2205643,29.77399704,-99999.0,'11111222,11111222,99999999' 
TABS,ioos:station:wmo:42049:1,2009-10-03T20:30:00Z,28.3507,-96.0058,2.0,262.8792775,30.25331222,-99999.0,'11111222,11111222,99999999' 
TABS,ioos:station:wmo:42049:1,2009-10-03T21:00:00Z,28.3507,-96.0058,2.0,257.7412214,45.73270383,-99999.0,'11111222,11111222,99999999' 
TABS,ioos:station:wmo:42049:1,2009-10-03T21:30:00Z,28.3507,-96.0058,2.0,258.8887071,46.8583109,-99999.0,'11111222,11111222,99999999' 
TABS,ioos:station:wmo:42049:1,2009-10-03T22:00:00Z,28.3507,-96.0058,2.0,258.3152315,42.61302383,-99999.0,'11111222,11111222,99999999' 
TABS,ioos:station:wmo:42049:1,2009-10-03T22:30:00Z,28.3507,-96.0058,2.0,251.4857266,36.72040305,-99999.0,'11111222,11111222,99999999' 
TABS,ioos:station:wmo:42049:1,2009-10-03T23:00:00Z,28.3507,-96.0058,2.0,254.5414281,34.89221833,-99999.0,'11111222,11111222,99999999' 
TABS,ioos:station:wmo:42049:1,2009-10-03T23:30:00Z,28.3507,-96.0058,2.0,253.7381067,35.10440001,-99999.0,'11111222,11111222,99999999' 
TABS,ioos:station:wmo:42049:1,2009-10-04T00:00:00Z,28.3507,-96.0058,2.0,255.128241,30.11884792,-99999.0,'11111222,11111222,99999999' 
TABS,ioos:station:wmo:42049:1,2009-10-04T00:30:00Z,28.3507,-96.0058,2.0,247.4350539,31.09001447,-99999.0,'11111222,11111222,99999999' 
TABS,ioos:station:wmo:42049:1,2009-10-04T01:00:00Z,28.3507,-96.0058,2.0,248.2336222,27.04838812,-99999.0,'11111222,11111222,99999999' 
TABS,ioos:station:wmo:42049:1,2009-10-04T01:30:00Z,28.3507,-96.0058,2.0,244.8877307,27.68695361,-99999.0,'11111222,11111222,99999999' 
TABS,ioos:station:wmo:42049:1,2009-10-04T02:00:00Z,28.3507,-96.0058,2.0,250.0115045,29.28396319,-99999.0,'11111222,11111222,99999999' 
TABS,ioos:station:wmo:42049:1,2009-10-04T02:30:00Z,28.3507,-96.0058,2.0,247.6206794,26.34407903,-99999.0,'11111222,11111222,99999999' 
TABS,ioos:station:wmo:42049:1,2009-10-04T03:00:00Z,28.3507,-96.0058,2.0,249.4895234,20.43539087,-99999.0,'11111222,11111222,99999999' 
TABS,ioos:station:wmo:42049:1,2009-10-04T03:30:00Z,28.3507,-96.0058,2.0,242.5419872,21.81772674,-99999.0,'11111222,11111222,99999999' 
TABS,ioos:station:wmo:42049:1,2009-10-04T04:00:00Z,28.3507,-96.0058,2.0,244.3968295,17.30960716,-99999.0,'11111222,11111222,99999999' 
TABS,ioos:station:wmo:42049:1,2009-10-04T04:30:00Z,28.3507,-96.0058,2.0,236.7851816,22.05286603,-99999.0,'11111222,11111222,99999999' 
TABS,ioos:station:wmo:42049:1,2009-10-04T05:00:00Z,28.3507,-96.0058,2.0,241.3828748,21.73509834,-99999.0,'11111222,11111222,99999999' 
TABS,ioos:station:wmo:42049:1,2009-10-04T05:30:00Z,28.3507,-96.0058,2.0,248.7830984,21.82962437,-99999.0,'11111222,11111222,99999999' 
TABS,ioos:station:wmo:42049:1,2009-10-04T06:00:00Z,28.3507,-96.0058,2.0,250.0545151,24.47820663,-99999.0,'11111222,11111222,99999999' 
TABS,ioos:station:wmo:42049:1,2009-10-04T06:30:00Z,28.3507,-96.0058,2.0,246.5386218,24.94191853,-99999.0,'11111222,11111222,99999999' 
TABS,ioos:station:wmo:42049:1,2009-10-04T07:00:00Z,28.3507,-96.0058,2.0,247.5167582,21.23390685,-99999.0,'11111222,11111222,99999999' 
TABS,ioos:station:wmo:42049:1,2009-10-04T07:30:00Z,28.3507,-96.0058,2.0,262.0544211,23.22292187,-99999.0,'11111222,11111222,99999999' 
TABS,ioos:station:wmo:42049:1,2009-10-04T08:00:00Z,28.3507,-96.0058,2.0,253.5751131,24.96890266,-99999.0,'11111222,11111222,99999999' 
TABS,ioos:station:wmo:42049:1,2009-10-04T08:30:00Z,28.3507,-96.0058,2.0,260.6876872,28.18137151,-99999.0,'11111222,11111222,99999999' 
TABS,ioos:station:wmo:42049:1,2009-10-04T09:00:00Z,28.3507,-96.0058,2.0,258.389231,27.67628949,-99999.0,'11111222,11111222,99999999' 
TABS,ioos:station:wmo:42049:1,2009-10-04T09:30:00Z,28.3507,-96.0058,2.0,244.8925978,24.95812693,-99999.0,'11111222,11111222,99999999' 
TABS,ioos:station:wmo:42049:1,2009-10-04T10:00:00Z,28.3507,-96.0058,2.0,254.4945712,22.51955595,-99999.0,'11111222,11111222,99999999' 
TABS,ioos:station:wmo:42049:1,2009-10-04T10:30:00Z,28.3507,-96.0058,2.0,247.3226978,23.94078111,-99999.0,'11111222,11111222,99999999' 
TABS,ioos:station:wmo:42049:1,2009-10-04T11:00:00Z,28.3507,-96.0058,2.0,240.2664771,24.27607876,-99999.0,'11111222,11111222,99999999' 
TABS,ioos:station:wmo:42049:1,2009-10-04T11:30:00Z,28.3507,-96.0058,2.0,241.7600438,26.01658125,-99999.0,'11111222,11111222,99999999' 
TABS,ioos:station:wmo:42049:1,2009-10-04T12:00:00Z,28.3507,-96.0058,2.0,247.0634638,24.94191853,-99999.0,'11111222,11111222,99999999' 
TABS,ioos:station:wmo:42049:1,2009-10-04T12:30:00Z,28.3507,-96.0058,2.0,243.6922304,25.85815152,-99999.0,'11111222,11111222,99999999' 
TABS,ioos:station:wmo:42049:1,2009-10-04T13:00:00Z,28.3507,-96.0058,2.0,260.2089925,26.11027575,-99999.0,'11111222,11111222,99999999' 
TABS,ioos:station:wmo:42049:1,2009-10-04T13:30:00Z,28.3507,-96.0058,2.0,249.9281002,27.12759665,-99999.0,'11111222,11111222,99999999' 
TABS,ioos:station:wmo:42049:1,2009-10-04T14:00:00Z,28.3507,-96.0058,2.0,244.7711364,23.39116286,-99999.0,'11111222,11111222,99999999' 
TABS,ioos:station:wmo:42049:1,2009-10-04T14:30:00Z,28.3507,-96.0058,2.0,245.3426422,23.37092424,-99999.0,'11111222,11111222,99999999' 
TABS,ioos:station:wmo:42049:1,2009-10-04T15:00:00Z,28.3507,-96.0058,2.0,248.8418211,24.96274224,-99999.0,'11111222,11111222,99999999' 
TABS,ioos:station:wmo:42049:1,2009-10-04T15:30:00Z,28.3507,-96.0058,2.0,252.2583253,25.85983952,-99999.0,'11111222,11111222,99999999' 
TABS,ioos:station:wmo:42049:1,2009-10-04T16:00:00Z,28.3507,-96.0058,2.0,252.7815674,23.37766669,-99999.0,'11111222,11111222,99999999' 